Location: Newark
(38.0892°N, 27.7378°E)
Time: 08:04:15
(UTC+00:00)

ISS - Visible Passes

Search period start: 16 December 2019 00:00
Search period end: 26 December 2019 00:00
Orbit: 411 x 421 km, 51.6° (Epoch: 16 December)

Date Brightness Start Highest point End Pass type
(mag) Time Alt. Az. Time Alt. Az. Time Alt. Az.
20 Dec -1.3 04:32:30 10° SSW 04:35:19 26° SE 04:38:09 10° ENE visible
21 Dec -0.6 03:45:02 10° SSE 03:46:57 15° SE 03:48:51 10° E visible
22 Dec -3.8 04:31:29 10° SW 04:34:47 86° SSE 04:38:07 10° NE visible
23 Dec -2.7 03:43:49 15° SSW 03:46:17 44° SE 03:49:28 10° ENE visible
24 Dec -1.2 02:58:37 22° ESE 02:58:37 22° ESE 03:00:33 10° ENE visible
24 Dec -3.0 04:31:35 11° W 04:34:26 33° NNW 04:37:30 10° NE visible
25 Dec -3.7 03:45:56 56° NNW 03:45:56 56° NNW 03:49:03 10° NE visible
